IRIDIUM 52 [P]

Last updated on Wed Oct 24 2018 00:08:19 GMT+0000 (Coordinated Universal Time)

1 25169U 98010A 18296.47220115 .01404566 -13964-5 10271-2 0 9997 2 25169 86.5688 143.9577 0388639 166.6562 194.5347 15.43755667 82261

Satellite not in orbit